星链-6198 (STARLINK-6198 )

导读

STARLINK-6198是美国太空探索技术公司(SpaceX)星链(Starlink)卫星互联网项目的一颗卫星,于2023年5月31日发射入轨。作为星链星座的组成部分,它主要承担全球高速互联网接入服务的覆盖任务,为偏远地区、移动载体等提供低延迟网络连接,推动了低轨巨型星座的组网建设。

Basic Information
目录编号:
56768
目录名称:
STARLINK-6198
国际标识:
2023-078B
轨道中心:
EARTH
卫星名称:
星链-6198
卫星全名:
星链-6198 (STARLINK-6198 )
卫星状态:
在轨 (已飞行1110 天)
发射日期:
2023-05-31 UTC
国别 :
美国 (US)
星等 :
--
Orbit Information
数据来源 国际轨道数据 AOE轨道数据
星历时间 2026-06-14T12:49:47+0800
17小时前
查看轨道信息
2026-06-15T02:00:00+0800
4小时前
查看轨道信息
半长轴 6950.167km 6950.119km
偏心率 0.0002511 0.0002684
轨道倾角 70.001° 70.002°
近地点辐角 266.681° 271.944°
升交点赤经 80.982° 79.598°
平近点角 93.406° 167.375°
近地点 570.284km 570.116km
远地点 573.776km 573.848km
周期 96.106分钟 96.105分钟
每日圈数 14.983384 14.983542
Detailed Information
固有亮度:
5
最大亮度:
2.5
卫星平台:
Starlink v1.5
覆盖范围:
全球
运营商:
太空探索技术公司
运营商所在国:
美国
制造商(研发单位):
太空探索技术公司
制造商所在国:
美国
使用方式:
暂无
Satellite Introduction
星链(Starlink)计划是由太空探索技术公司(SpaceX)提出的一个巨型低轨卫星互联网星座项目,计划在2019年至2024年间在太空搭建由约1.2万颗卫星组成的“星链”网络,其中1584颗将部署在地球上空550千米处的近地轨道,并从2020年开始工作。该卫星仍在工作。
2D Orbit Map
3D Orbit Map
Orbit Altitude Analysis Chart
Orbit Inclination Analysis Chart
Orbit Comprehensive Analysis Chart
View Comprehensive Chart